TimeCEST,TemperatureF,Dew PointF,Humidity,Sea Level PressureIn,VisibilityMPH,Wind Direction,Wind SpeedMPH,Gust SpeedMPH,PrecipitationIn,Events,Conditions,WindDirDegrees,DateUTC
12:00 AM,35.6,28.4,75,30.33,-9999.0,ESE,6.9,-,N/A,,Clear,110,2013-10-02 22:00:00
12:30 AM,33.8,28.4,81,30.33,-9999.0,ESE,6.9,-,N/A,,Clear,120,2013-10-02 22:30:00
1:00 AM,35.6,28.4,75,30.33,-9999.0,SE,4.6,-,N/A,,Clear,130,2013-10-02 23:00:00
1:30 AM,33.8,28.4,81,30.33,-9999.0,SE,3.5,-,N/A,,Clear,130,2013-10-02 23:30:00
2:00 AM,34,28,72,30.42,22,ESE,6.7,,,,Clear,110,2013-10-03 00:00:00
2:00 AM,33.8,28.4,81,30.33,-9999.0,ESE,4.6,-,N/A,,Clear,120,2013-10-03 00:00:00
2:30 AM,33.8,28.4,81,30.33,-9999.0,East,4.6,-,N/A,,Clear,100,2013-10-03 00:30:00
3:00 AM,33.8,30.2,87,30.33,-9999.0,SE,3.5,-,N/A,,Clear,130,2013-10-03 01:00:00
3:30 AM,32.0,28.4,87,30.33,-9999.0,East,3.5,-,N/A,,Clear,100,2013-10-03 01:30:00
4:00 AM,32.0,28.4,87,30.33,-9999.0,East,4.6,-,N/A,,Clear,100,2013-10-03 02:00:00
4:30 AM,32.0,28.4,87,30.33,-9999.0,SE,4.6,-,N/A,,Clear,130,2013-10-03 02:30:00
5:00 AM,32.0,28.4,87,30.33,-9999.0,ESE,2.3,-,N/A,,Clear,120,2013-10-03 03:00:00
5:30 AM,32.0,28.4,87,30.36,-9999.0,ESE,3.5,-,N/A,,Clear,110,2013-10-03 03:30:00
6:00 AM,30.2,28.4,93,30.36,-9999.0,ESE,4.6,-,N/A,,Clear,110,2013-10-03 04:00:00
6:30 AM,30.2,28.4,93,30.36,-9999.0,ESE,4.6,-,N/A,,Clear,110,2013-10-03 04:30:00
7:00 AM,30.2,28.4,93,30.36,5.0,ESE,3.5,-,N/A,,Unknown,110,2013-10-03 05:00:00
7:30 AM,30.2,28.4,93,30.36,5.0,East,5.8,-,N/A,,Unknown,100,2013-10-03 05:30:00
8:00 AM,32,29,84,30.45,5,East,4.5,,,,Mist,100,2013-10-03 06:00:00
8:00 AM,32.0,30.2,93,30.36,5.0,ESE,3.5,-,N/A,,Unknown,110,2013-10-03 06:00:00
8:30 AM,33.8,30.2,87,30.39,5.0,East,5.8,-,N/A,,Unknown,90,2013-10-03 06:30:00
9:00 AM,37.4,32.0,81,30.39,-9999.0,ESE,8.1,-,N/A,,Clear,110,2013-10-03 07:00:00
9:30 AM,39.2,32.0,75,30.39,-9999.0,ESE,9.2,-,N/A,,Clear,120,2013-10-03 07:30:00
10:00 AM,41.0,32.0,70,30.39,-9999.0,ESE,10.4,-,N/A,,Clear,110,2013-10-03 08:00:00
10:30 AM,44.6,32.0,61,30.39,-9999.0,ESE,12.7,-,N/A,,Clear,120,2013-10-03 08:30:00
11:00 AM,44.6,26.6,49,30.36,-9999.0,ESE,13.8,-,N/A,,Clear,120,2013-10-03 09:00:00
11:30 AM,46.4,28.4,50,30.36,-9999.0,ESE,18.4,-,N/A,,Clear,120,2013-10-03 09:30:00
12:00 PM,46.4,28.4,50,30.36,-9999.0,ESE,18.4,-,N/A,,Clear,120,2013-10-03 10:00:00
12:30 PM,48.2,28.4,46,30.36,-9999.0,ESE,16.1,-,N/A,,Clear,120,2013-10-03 10:30:00
1:00 PM,48.2,28.4,46,30.36,-9999.0,ESE,17.3,-,N/A,,Clear,110,2013-10-03 11:00:00
1:30 PM,50.0,28.4,43,30.36,-9999.0,ESE,16.1,-,N/A,,Clear,120,2013-10-03 11:30:00
2:00 PM,49,28,31,30.38,19,ESE,15.7,,,,,120,2013-10-03 12:00:00
2:00 PM,50.0,28.4,43,30.33,-9999.0,ESE,16.1,-,N/A,,Clear,110,2013-10-03 12:00:00
2:30 PM,50.0,30.2,47,30.33,-9999.0,ESE,15.0,-,N/A,,Clear,120,2013-10-03 12:30:00
3:00 PM,50.0,30.2,47,30.33,-9999.0,ESE,15.0,-,N/A,,Clear,120,2013-10-03 13:00:00
3:30 PM,51.8,28.4,41,30.33,-9999.0,ESE,13.8,-,N/A,,Clear,110,2013-10-03 13:30:00
4:00 PM,51.8,30.2,44,30.33,-9999.0,ESE,15.0,-,N/A,,Clear,120,2013-10-03 14:00:00
4:30 PM,50.0,30.2,47,30.30,-9999.0,ESE,12.7,-,N/A,,Clear,120,2013-10-03 14:30:00
5:00 PM,50.0,30.2,47,30.30,-9999.0,ESE,12.7,-,N/A,,Clear,120,2013-10-03 15:00:00
5:30 PM,50.0,30.2,47,30.33,-9999.0,SE,13.8,-,N/A,,Clear,130,2013-10-03 15:30:00
6:00 PM,48.2,30.2,50,30.33,-9999.0,ESE,13.8,-,N/A,,Clear,120,2013-10-03 16:00:00
6:30 PM,46.4,30.2,53,30.33,-9999.0,ESE,11.5,-,N/A,,Clear,110,2013-10-03 16:30:00
7:00 PM,42.8,30.2,61,30.33,-9999.0,ESE,11.5,-,N/A,,Clear,120,2013-10-03 17:00:00
7:39 PM,42.8,30.2,61,30.33,-9999.0,ESE,10.4,-,N/A,,Clear,110,2013-10-03 17:39:00
8:00 PM,42,30,52,30.38,19,ESE,11.2,,,,Clear,120,2013-10-03 18:00:00
8:00 PM,42.8,30.2,61,30.33,-9999.0,ESE,10.4,-,N/A,,Clear,110,2013-10-03 18:00:00
8:30 PM,41.0,30.2,65,30.33,-9999.0,ESE,11.5,-,N/A,,Clear,120,2013-10-03 18:30:00
9:00 PM,37.4,28.4,70,30.33,-9999.0,SE,10.4,-,N/A,,Clear,130,2013-10-03 19:00:00
9:30 PM,39.2,30.2,70,30.36,-9999.0,SE,9.2,-,N/A,,Clear,130,2013-10-03 19:30:00
10:00 PM,37.4,28.4,70,30.36,-9999.0,ESE,6.9,-,N/A,,Clear,120,2013-10-03 20:00:00
10:30 PM,37.4,28.4,70,30.36,-9999.0,ESE,8.1,-,N/A,,Clear,110,2013-10-03 20:30:00
11:00 PM,35.6,28.4,75,30.36,-9999.0,East,6.9,-,N/A,,Clear,100,2013-10-03 21:00:00
11:30 PM,33.8,28.4,81,30.36,-9999.0,East,8.1,-,N/A,,Clear,100,2013-10-03 21:30:00